Location: Newark
(10.2350°N, 77.4860°E)
Time: 14:25:44
(UTC+00:00)

Hubble Space Telescope - Visible Passes

Search period start: 19 October 2019 00:00
Search period end: 29 October 2019 00:00
Orbit: 536 x 540 km, 28.5° (Epoch: 19 October)

Date Brightness Start Highest point End Pass type
(mag) Time Alt. Az. Time Alt. Az. Time Alt. Az.
19 Oct 3.6 13:32:46 10° SW 13:34:29 12° SSW 13:36:13 10° S visible
20 Oct 3.5 23:38:29 10° S 23:40:30 13° SSE 23:42:29 10° ESE visible
21 Oct 3.2 23:27:02 10° SSW 23:29:55 18° SSE 23:32:48 10° ESE visible
22 Oct 2.7 23:16:38 14° SSW 23:19:21 25° SSE 23:22:46 10° E visible
23 Oct 2.1 23:07:31 28° S 23:08:46 35° SSE 23:12:32 10° E visible
24 Oct 1.4 22:58:19 50° SE 22:58:19 50° SE 23:02:11 10° ENE visible
25 Oct 2.0 22:49:02 38° ENE 22:49:02 38° ENE 22:51:43 10° ENE visible
26 Oct 3.0 22:39:40 21° ENE 22:39:40 21° ENE 22:41:09 10° ENE visible
27 Oct 2.5 00:15:36 10° WNW 00:18:25 18° NNW 00:21:14 10° NNE visible
27 Oct 3.7 22:30:12 12° NE 22:30:12 12° NE 22:30:31 10° NE visible
28 Oct 2.8 00:05:42 10° NW 00:07:58 14° NNW 00:10:13 10° NNE visible
28 Oct 3.0 23:56:04 10° NW 23:57:32 12° NNW 23:59:01 10° N visible
